[[{"header":{"parameterUnit":"m.s-1","parameterCategory":1,"la1":30.2991,"la2":30.254,"lo1":-89.0895,"lo2":-89.0444,"dy":0.0017,"dx":0.0017,"nx":28,"ny":28,"refTime":"2025-08-17T09:00:00:Z","depth":0,"parameterNumber":2,"parameterNumberName":"U-component_of_WINDS"},"data":[0,0,0,0,0,0,0,0,0,0,0,0,0,0,0,0,0,0,0,0,0,0,0,0,0,0,0,0,0,0,0,0,0,0,0,0,0,0,0,0,0,0,0,0,0,0,0,0,0,0,0,0,0,0,0,0,0,0,-0.1091,-0.109,0,-0.0994,-0.0993,-0.0992,-0.0992,-0.0994,-0.0995,-0.0996,-0.0895,-0.0892,-0.0888,0,0,0,0,0,0,0,0,0,0,0,0,0,-0.1277,-0.1273,-0.1091,-0.109,-0.1089,-0.0994,-0.0993,-0.0992,-0.0992,-0.0994,-0.0995,-0.0997,-0.0897,-0.0892,-0.0887,0,0,0,0,0,0,0,0,0,0,0,0,0,-0.1189,-0.1272,-0.1092,-0.1078,-0.1076,-0.0995,-0.0993,-0.0991,-0.0992,-0.0994,-0.0996,-0.0997,-0.0898,-0.0892,-0.0887,-0.0813,0,0,-0.0869,-0.0866,0,0,0,0,0,0,0,0,-0.1194,-0.1183,-0.1081,-0.1079,-0.1076,-0.1007,-0.1021,-0.0931,-0.0991,-0.1024,-0.0996,-0.0998,-0.0931,-0.0923,-0.09,-0.0808,-0.0804,-0.0868,-0.0865,-0.0862,-0.0861,0,0,0,0,0,0,0,-0.12,-0.1187,-0.1053,-0.108,-0.1076,-0.1076,-0.1066,-0.1004,-0.0968,-0.1021,-0.1021,-0.1009,-0.093,-0.0906,-0.0898,-0.0802,-0.0869,-0.0863,-0.086,-0.0858,-0.0645,-0.0643,0,0,0,0,0,0,-0.1209,-0.1192,-0.1056,-0.105,-0.1141,-0.1071,-0.106,-0.1027,-0.0968,-0.0961,-0.1008,-0.101,-0.0915,-0.0905,-0.0894,-0.0803,-0.0863,-0.0857,-0.0854,-0.0647,-0.0644,-0.0642,0,0,0,0,0,0,-0.1213,-0.1197,-0.106,-0.1121,-0.1103,-0.1066,-0.103,-0.1024,-0.1,-0.0958,-0.0952,-0.099,-0.0916,-0.0902,-0.0833,-0.08,-0.0854,-0.0849,-0.065,-0.0646,-0.0643,-0.0622,0,0,0,0,0,0,-0.1219,-0.1199,-0.117,-0.112,-0.11,-0.1,-0.1028,-0.1021,-0.099,-0.0992,-0.094,-0.0933,-0.0916,-0.0842,-0.0827,-0.0793,-0.0845,-0.0652,-0.0648,-0.0644,-0.0625,-0.0618,-0.0612,0,0,0,0,0,-0.1225,-0.1168,-0.1169,-0.1152,-0.1064,-0.0998,-0.0987,-0.0969,-0.0988,-0.0959,-0.0932,-0.0935,-0.0806,-0.0835,-0.0818,-0.0782,-0.0654,-0.0649,-0.0644,-0.0628,-0.0619,-0.0612,0,0,0,0,0,0,-0.1214,-0.1161,-0.1161,-0.1086,-0.1047,-0.0999,-0.0961,-0.0961,-0.0915,-0.0918,-0.0898,-0.0886,-0.0817,-0.0793,-0.0825,-0.0707,-0.0733,-0.0724,-0.0726,-0.0717,-0.0711,-0.0718,-0.084,0,0,0,0,0,-0.1203,-0.1155,-0.1111,-0.1048,-0.1029,-0.0999,-0.097,-0.0959,-0.0918,-0.0901,-0.0869,-0.0829,-0.0779,-0.0747,-0.0699,-0.0622,-0.0611,-0.0589,-0.0583,-0.0577,-0.057,-0.0528,-0.0518,-0.0626,-0.0626,-0.0626,0,0,-0.1179,-0.1144,-0.1115,-0.1045,-0.1014,-0.0964,-0.0985,-0.0931,-0.0894,-0.0893,-0.0825,-0.0801,-0.0754,-0.0681,-0.0647,-0.0658,-0.0538,-0.0571,-0.0567,-0.0563,-0.0522,-0.0511,-0.0502,-0.0623,-0.0623,-0.0624,0,0,-0.111,-0.1079,-0.1024,-0.0992,-0.0944,-0.0925,-0.0912,-0.0864,-0.0847,-0.078,-0.0778,-0.0734,-0.0649,-0.0616,-0.0588,-0.0508,-0.0509,-0.0493,-0.0458,-0.0417,-0.0409,-0.0401,-0.0372,-0.0362,-0.0486,-0.0486,-0.0486,0,-0.1086,-0.1012,-0.0995,-0.0941,-0.0911,-0.0909,-0.0853,-0.0823,-0.0761,-0.074,-0.0754,-0.0648,-0.0617,-0.0536,-0.0516,-0.0494,-0.0478,-0.0498,-0.0412,-0.0404,-0.0396,-0.0369,-0.0358,-0.0484,-0.0485,-0.0485,-0.0485,0,-0.0985,-0.0933,-0.0894,-0.0836,-0.0801,-0.0746,-0.0721,-0.0688,-0.0682,-0.0661,-0.0592,-0.0554,-0.0499,-0.0479,-0.0472,-0.0397,-0.0406,-0.0416,-0.0441,-0.0385,-0.0358,-0.0348,-0.0482,-0.0483,-0.0483,-0.0484,0,0,-0.0904,-0.0839,-0.0824,-0.0798,-0.0746,-0.0706,-0.0651,-0.0598,-0.0569,-0.0528,-0.0482,-0.0411,-0.042,-0.0388,-0.0377,-0.0342,-0.0281,-0.0356,-0.0355,-0.0343,-0.0196,-0.0188,-0.0176,-0.0281,-0.0279,-0.0278,-0.02,0,-0.0829,-0.0732,-0.0717,-0.0632,-0.0584,-0.0582,-0.0534,-0.0497,-0.0476,-0.0433,-0.041,-0.036,-0.0376,-0.0357,-0.0321,-0.0296,-0.0251,-0.0301,-0.0238,-0.0236,-0.0249,-0.0162,-0.0154,-0.0082,-0.0189,-0.0188,-0.0186,0,-0.0728,-0.0685,-0.0595,-0.055,-0.0529,-0.0487,-0.0437,-0.0395,-0.0354,-0.0341,-0.0306,-0.03,-0.0244,-0.0272,-0.0194,-0.0229,-0.0202,-0.0186,-0.0182,-0.0175,-0.0207,-0.0152,-0.0059,-0.0048,-0.017,-0.0171,-0.0173,0,-0.0678,-0.0597,-0.0533,-0.0511,-0.0457,-0.0427,-0.0403,-0.0363,-0.0332,-0.0289,-0.0269,-0.0219,-0.0192,-0.0154,-0.0134,-0.0157,-0.0058,-0.0084,-0.0046,-0.0046,-0.0024,-0.0025,0.0076,-0.0008,-0.0008,-0.0008,-0.0008,0,-0.0596,-0.0541,-0.051,-0.047,-0.0409,-0.0392,-0.0331,-0.0308,-0.0273,-0.0229,-0.0225,-0.0183,-0.0161,-0.0116,-0.0101,-0.0039,-0.0027,-0.0015,-0.0011,-0.0015,-0.0016,0.0003,-0.0001,-0.0005,-0.0006,-0.0007,-0.0007,0,-0.0529,-0.0506,-0.0436,-0.0391,-0.0378,-0.0335,-0.0297,-0.0258,-0.0239,-0.0183,-0.0169,-0.0138,-0.0085,-0.0063,0.0002,0.0012,0.0083,0.0083,0.0069,0.0071,0.0108,0.0104,0.0226,0.0243,0.0148,0.0148,0.0149,0,-0.0477,-0.0435,-0.0386,-0.0356,-0.0331,-0.0284,-0.0252,-0.0234,-0.0202,-0.0152,-0.0119,-0.0067,-0.0024,0.0059,0.0088,0.0137,0.0138,0.0177,0.0146,0.014,0.0139,0.0136,0.0141,0.0183,0.0184,0.0185,0.0186,0,-0.0387,-0.0379,-0.0334,-0.0285,-0.0248,-0.0209,-0.017,-0.0146,-0.0122,-0.0086,-0.0033,0.0,0.0066,0.0118,0.0168,0.0193,0.0193,0.0195,0.0207,0.0204,0.0194,0.02,0.0086,0.0193,0.0192,0.0191,0.0191,0.0191,-0.0326,-0.0288,-0.0248,-0.0199,-0.0168,-0.0133,-0.0095,-0.0071,-0.0026,0.0029,0.0037,0.0093,0.0133,0.0201,0.0227,0.0272,0.0262,0.0279,0.0284,0.0288,0.029,0.0187,0.0281,0.0281,0.0281,0.0281,0.0281,0,-0.0236,-0.021,-0.0165,-0.0112,-0.0073,-0.0077,-0.0035,-0.0002,0.0048,0.0085,0.0127,0.0188,0.0238,0.0269,0.032,0.0349,0.0351,0.0362,0.036,0.0366,0.0296,0.0281,0.036,0.036,0.036,0.036,0.036,0.036,-0.0184,-0.0121,-0.0108,-0.003,-0.0005,0.0051,0.0075,0.0108,0.0137,0.0205,0.0246,0.0266,0.0301,0.0354,0.0399,0.0407,0.0425,0.0437,0.0445,0.0379,0.0371,0.0363,0.0349,0.0441,0.0441,0.0511,0.0512,0.0512]},{"header":{"parameterUnit":"m.s-1","parameterCategory":1,"la1":30.2991,"la2":30.254,"lo1":-89.0895,"lo2":-89.0444,"dy":0.0017,"dx":0.0017,"nx":28,"ny":28,"refTime":"2025-08-17T09:00:00:Z","depth":0,"parameterNumber":3,"parameterNumberName":"V-component_of_WINDS"},"data":[0,0,0,0,0,0,0,0,0,0,0,0,0,0,0,0,0,0,0,0,0,0,0,0,0,0,0,0,0,0,0,0,0,0,0,0,0,0,0,0,0,0,0,0,0,0,0,0,0,0,0,0,0,0,0,0,0,0,-0.241,-0.2409,0,-0.2324,-0.2323,-0.2322,-0.2355,-0.2357,-0.2359,-0.2361,-0.2273,-0.2268,-0.2264,0,0,0,0,0,0,0,0,0,0,0,0,0,-0.2606,-0.2602,-0.241,-0.2409,-0.2408,-0.2324,-0.2322,-0.2321,-0.2355,-0.2357,-0.236,-0.2362,-0.2274,-0.2269,-0.2264,0,0,0,0,0,0,0,0,0,0,0,0,0,-0.252,-0.2601,-0.241,-0.2414,-0.2414,-0.2324,-0.2322,-0.2321,-0.2354,-0.2357,-0.236,-0.2363,-0.2276,-0.2269,-0.2263,-0.2164,0,0,-0.2244,-0.2241,0,0,0,0,0,0,0,0,-0.2525,-0.2513,-0.2415,-0.2414,-0.2413,-0.2353,-0.2359,-0.2268,-0.2354,-0.2377,-0.2361,-0.2365,-0.2297,-0.2289,-0.2266,-0.216,-0.2156,-0.2243,-0.2239,-0.2237,-0.2235,0,0,0,0,0,0,0,-0.2531,-0.2517,-0.2376,-0.2413,-0.2412,-0.2421,-0.2412,-0.2342,-0.2321,-0.2375,-0.2377,-0.2367,-0.2297,-0.2272,-0.2264,-0.2154,-0.2243,-0.2238,-0.2234,-0.2231,-0.1968,-0.1965,0,0,0,0,0,0,-0.2537,-0.2521,-0.2378,-0.2373,-0.2478,-0.2415,-0.2405,-0.2369,-0.2322,-0.2318,-0.2364,-0.2369,-0.2282,-0.2272,-0.2261,-0.2146,-0.2237,-0.2231,-0.2227,-0.1971,-0.1967,-0.1964,0,0,0,0,0,0,-0.2541,-0.2524,-0.2382,-0.2448,-0.243,-0.2409,-0.2368,-0.2366,-0.2341,-0.2314,-0.231,-0.2343,-0.2284,-0.227,-0.2189,-0.2143,-0.2228,-0.2222,-0.1975,-0.197,-0.1965,-0.1912,0,0,0,0,0,0,-0.2546,-0.2525,-0.2486,-0.2447,-0.2427,-0.231,-0.2365,-0.2362,-0.233,-0.2335,-0.2293,-0.2288,-0.2285,-0.2198,-0.2183,-0.2136,-0.2217,-0.1979,-0.1972,-0.1967,-0.1918,-0.1906,-0.1896,0,0,0,0,0,-0.2553,-0.2473,-0.2484,-0.2466,-0.2378,-0.2307,-0.2296,-0.2294,-0.2326,-0.2288,-0.2271,-0.229,-0.215,-0.219,-0.2172,-0.2123,-0.1982,-0.1974,-0.1967,-0.1923,-0.1908,-0.1896,0,0,0,0,0,0,-0.2506,-0.2468,-0.2479,-0.2384,-0.2349,-0.2313,-0.2264,-0.2278,-0.2232,-0.2238,-0.2238,-0.2228,-0.2145,-0.2125,-0.217,-0.2027,-0.2071,-0.206,-0.2043,-0.2029,-0.2018,-0.2026,-0.2212,0,0,0,0,0,-0.2485,-0.2431,-0.24,-0.2319,-0.2301,-0.2286,-0.2255,-0.2257,-0.222,-0.2205,-0.2182,-0.2145,-0.2094,-0.206,-0.2011,-0.1915,-0.1908,-0.1872,-0.1861,-0.1853,-0.1844,-0.1796,-0.1782,-0.194,-0.194,-0.194,0,0,-0.244,-0.2413,-0.2378,-0.2309,-0.2282,-0.2228,-0.2273,-0.2211,-0.2172,-0.2195,-0.2119,-0.21,-0.206,-0.1972,-0.1932,-0.1954,-0.1799,-0.1843,-0.1837,-0.1833,-0.1787,-0.1773,-0.1759,-0.1935,-0.1936,-0.1937,0,0,-0.2332,-0.2304,-0.2236,-0.2209,-0.2168,-0.2159,-0.2142,-0.2105,-0.2094,-0.2017,-0.2036,-0.1988,-0.1898,-0.187,-0.1844,-0.1729,-0.1746,-0.1713,-0.1657,-0.161,-0.1598,-0.1587,-0.155,-0.1536,-0.1704,-0.1704,-0.1704,0,-0.2282,-0.22,-0.2199,-0.2138,-0.2109,-0.2129,-0.2062,-0.2035,-0.1979,-0.1959,-0.1984,-0.1875,-0.1849,-0.1757,-0.173,-0.1706,-0.169,-0.1719,-0.16,-0.1589,-0.1578,-0.1543,-0.1529,-0.17,-0.1701,-0.1701,-0.1701,0,-0.2142,-0.2085,-0.2035,-0.1984,-0.1948,-0.1884,-0.1875,-0.184,-0.1845,-0.1834,-0.1758,-0.1727,-0.1675,-0.1653,-0.1656,-0.1562,-0.1578,-0.16,-0.1645,-0.156,-0.1527,-0.1513,-0.1695,-0.1697,-0.1698,-0.1699,0,0,-0.2001,-0.1952,-0.1934,-0.1913,-0.1871,-0.1828,-0.1765,-0.1715,-0.1687,-0.1648,-0.1598,-0.1524,-0.1546,-0.1517,-0.1518,-0.1476,-0.1393,-0.1505,-0.1505,-0.1489,-0.1293,-0.1279,-0.1263,-0.1403,-0.1401,-0.1398,-0.1298,0,-0.1892,-0.1784,-0.1784,-0.1685,-0.1635,-0.1655,-0.1601,-0.1571,-0.1559,-0.1515,-0.1503,-0.1452,-0.1483,-0.1466,-0.1426,-0.1412,-0.1354,-0.1418,-0.136,-0.1357,-0.1372,-0.1245,-0.1228,-0.1135,-0.1285,-0.1282,-0.1281,0,-0.1751,-0.1711,-0.1607,-0.1577,-0.1556,-0.1508,-0.1464,-0.1421,-0.1388,-0.1383,-0.1352,-0.136,-0.1299,-0.1344,-0.1262,-0.1306,-0.1282,-0.1272,-0.1268,-0.1265,-0.1316,-0.1242,-0.1104,-0.1092,-0.126,-0.1261,-0.1263,0,-0.1664,-0.1583,-0.1513,-0.1493,-0.1454,-0.1421,-0.1403,-0.1373,-0.1344,-0.1306,-0.1288,-0.1242,-0.1217,-0.1183,-0.118,-0.1212,-0.1099,-0.1142,-0.1095,-0.1096,-0.1072,-0.1074,-0.0933,-0.1051,-0.1051,-0.1051,-0.1052,0,-0.1544,-0.1481,-0.1474,-0.143,-0.1361,-0.1362,-0.1294,-0.1279,-0.1253,-0.1208,-0.1221,-0.118,-0.1176,-0.1134,-0.113,-0.1066,-0.1054,-0.105,-0.105,-0.105,-0.1051,-0.1037,-0.1044,-0.1048,-0.1049,-0.1049,-0.105,0,-0.1436,-0.1428,-0.1353,-0.1323,-0.1315,-0.1266,-0.1241,-0.1201,-0.1192,-0.1136,-0.1122,-0.1108,-0.1059,-0.1052,-0.0994,-0.0992,-0.0916,-0.0921,-0.0928,-0.093,-0.0884,-0.089,-0.0731,-0.0712,-0.0839,-0.0838,-0.0837,0,-0.1362,-0.1315,-0.1281,-0.1253,-0.1234,-0.1188,-0.116,-0.1159,-0.1129,-0.109,-0.1055,-0.1007,-0.097,-0.0891,-0.0876,-0.0833,-0.084,-0.0787,-0.0833,-0.0837,-0.0844,-0.0848,-0.0845,-0.0779,-0.0777,-0.0776,-0.0775,0,-0.1233,-0.1232,-0.1191,-0.1149,-0.1115,-0.1082,-0.105,-0.1026,-0.1022,-0.0988,-0.0939,-0.091,-0.0853,-0.0807,-0.0765,-0.0748,-0.0762,-0.0761,-0.0748,-0.0749,-0.0757,-0.0757,-0.0907,-0.0765,-0.0766,-0.0767,-0.0767,-0.0768,-0.1142,-0.1103,-0.1075,-0.1029,-0.1006,-0.0977,-0.094,-0.0927,-0.0886,-0.084,-0.0842,-0.0789,-0.0761,-0.0706,-0.0686,-0.0646,-0.0663,-0.0644,-0.064,-0.0636,-0.0634,-0.0761,-0.0638,-0.0638,-0.0638,-0.0639,-0.0639,0,-0.1018,-0.1001,-0.0959,-0.0917,-0.0882,-0.0898,-0.0865,-0.0835,-0.0789,-0.0761,-0.0725,-0.067,-0.0627,-0.0609,-0.0567,-0.0539,-0.0545,-0.0528,-0.0532,-0.0529,-0.0619,-0.0635,-0.0525,-0.0525,-0.0525,-0.0525,-0.0525,-0.0525,-0.0949,-0.0885,-0.0881,-0.0807,-0.0791,-0.074,-0.072,-0.0695,-0.0674,-0.0613,-0.0577,-0.0566,-0.0544,-0.0501,-0.0463,-0.0459,-0.0444,-0.0426,-0.0425,-0.051,-0.0522,-0.0533,-0.0549,-0.0422,-0.0422,-0.0339,-0.0339,-0.0338]}]]